Location: Unspecified
(0.0000°N, 0.0000°E)
Time: 07:00:32
(UTC+00:00)

UWE-3 - Visible Passes

Search period start: 12 July 2020 00:00
Search period end: 22 July 2020 00:00
Orbit: 586 x 682 km, 97.6° (Epoch: 11 July)

Date Brightness Start Highest point End Pass type
(mag) Time Alt. Az. Time Alt. Az. Time Alt. Az.
12 Jul ? 05:03:03 10° N 05:07:07 45° WNW 05:10:41 13° SSW visible
13 Jul ? 03:50:17 10° ENE 03:52:25 14° ESE 03:54:32 10° SE visible
13 Jul ? 05:25:19 10° NNW 05:28:35 22° WNW 05:31:50 10° SW visible
14 Jul ? 04:10:18 10° NE 04:13:54 27° E 04:16:40 14° SSE visible
15 Jul ? 04:31:15 10° NNE 04:35:24 58° ESE 04:38:23 18° S visible
16 Jul ? 04:52:43 10° N 04:56:53 64° W 05:00:07 16° SSW visible
17 Jul ? 05:14:41 10° NNW 05:18:21 29° WNW 05:21:50 11° SW visible
18 Jul ? 04:00:35 10° NE 04:03:40 20° ESE 04:06:07 13° SE visible
18 Jul ? 05:37:29 10° NW 05:39:48 15° WNW 05:42:07 10° WSW visible
19 Jul ? 04:21:12 10° NNE 04:25:08 41° ESE 04:27:50 18° SSE visible
20 Jul ? 04:42:26 10° N 04:46:37 90° SW 04:49:34 19° SSW visible
21 Jul ? 05:04:11 10° N 05:08:05 41° WNW 05:11:18 14° SW visible
